Location: Bratislava
(48.1500°N, 17.1170°E)
Time: 13:28:25
(UTC+01:00)

N. Korean satellite - Pass Details

Date: 26 January 2019
Orbit: 456 x 510 km, 97.2° (Epoch: 23 February)

Event Time Altitude Azimuth Distance (km) Brightness Sun altitude
Rises 06:30:21 0° 8° (N) 2,618 10.2 -9.6°
Reaches altitude 10° 06:32:29 10° 5° (N) 1,722 9.2 -9.3°
Maximum altitude 06:36:07 56° 287° (WNW) 597 6.7 -8.7°
Drops below altitude 10° 06:39:40 10° 208° (SSW) 1,679 9.2 -8.2°
Sets 06:41:44 0° 204° (SSW) 2,546 10.2 -7.8°
